User: anonymous   Login
Location: Caltech
(34.1382°N, 118.1253°W)
Time: 08:46:27
(UTC-07:00)
Language:

ASTRO E2 - Orbit

View from above orbital plane
View from above orbital plane
View from above satellite
View from above satellite

Ground track
Ground track

The orbit data is extracted from the following two-line orbital elements,

1 28773U 05025A   17177.60930468 +.00000800 +00000-0 +36405-4 0  9998
2 28773 031.3821 235.3321 0004672 080.9014 279.2161 15.15835973658809
Epoch (UTC): 26 June 2017 14:37:23
Eccentricity: 0.0004672
inclination: 31.3821°
perigee height: 515 km
apogee height: 521 km
right ascension of ascending node: 235.3321°
argument of perigee: 80.9014°
revolutions per day: 15.15835973
mean anomaly at epoch: 279.2161°
orbit number at epoch: 65880

The dashed part of the orbit path shows where the satellite is in the earth's shadow,  

DLR